This is the latest recevied weather packets stored in our database for station/object KC1IUC-15. If no packets are shown the sender has not sent any weather packets the latest 10 day(s).
| Time | Temp. | Humidity | Pressure | Rain* | Wind** | Luminosity | Snow |
|---|---|---|---|---|---|---|---|
| 1777589403 | 12.22° C | 90% | 1006.9 hPa | 0.51 mm | - | 11 W/m² | - |
| 1777589103 | 12.78° C | 89% | 1006.9 hPa | 0.51 mm | - | 19 W/m² | - |
| 1777588803 | 12.22° C | 89% | 1006.5 hPa | 0.51 mm | - | 24 W/m² | - |
| 1777588503 | 12.78° C | 87% | 1006.9 hPa | 0.51 mm | - | 25 W/m² | - |
| 1777588203 | 13.33° C | 87% | 1006.9 hPa | 0.25 mm | - | 18 W/m² | - |
| 1777587903 | 13.33° C | 86% | 1006.5 hPa | 0 mm | - | 13 W/m² | - |
| 1777587603 | 13.33° C | 85% | 1006.5 hPa | 0 mm | - | 11 W/m² | - |
| 1777587303 | 13.33° C | 84% | 1006.2 hPa | 0 mm | - | 21 W/m² | - |
| 1777587003 | 13.33° C | 85% | 1006.2 hPa | 0 mm | - | 39 W/m² | - |
| 1777586703 | 13.89° C | 85% | 1006.2 hPa | 0 mm | - | 69 W/m² | - |
| 1777586403 | 13.89° C | 84% | 1006.2 hPa | 0 mm | - | 78 W/m² | - |
| 1777586103 | 13.89° C | 85% | 1006.2 hPa | 0 mm | - | 70 W/m² | - |
| 1777585803 | 13.89° C | 82% | 1006.2 hPa | 0 mm | - | 44 W/m² | - |
| 1777585503 | 13.89° C | 82% | 1006.2 hPa | 0 mm | - | 39 W/m² | - |
| 1777585203 | 13.89° C | 80% | 1006.2 hPa | 0 mm | - | 64 W/m² | - |
| 1777584903 | 13.89° C | 79% | 1006.2 hPa | 0 mm | - | 76 W/m² | - |
| 1777584603 | 13.89° C | 80% | 1006.2 hPa | 0 mm | - | 102 W/m² | - |
| 1777584303 | 13.89° C | 80% | 1005.8 hPa | 0 mm | - | 110 W/m² | - |
| 1777584003 | 13.89° C | 79% | 1005.5 hPa | 0 mm | - | 109 W/m² | - |
| 1777583703 | 13.33° C | 81% | 1005.5 hPa | 0 mm | - | 144 W/m² | - |
| 1777583403 | 13.33° C | 82% | 1005.8 hPa | 0 mm | - | 144 W/m² | - |
| 1777583103 | 13.33° C | 83% | 1005.8 hPa | 0 mm | - | 101 W/m² | - |
| 1777582803 | 13.33° C | 82% | 1005.8 hPa | 0 mm | - | 56 W/m² | - |
| 1777582504 | 13.33° C | 83% | 1005.5 hPa | 0 mm | - | 44 W/m² | - |
| 1777582203 | 13.33° C | 82% | 1005.8 hPa | 0 mm | - | 48 W/m² | - |
* Rain latest hour (hover to see other rain measurements)
** Current wind speed in m/s (hover to see current wind gust speed)